Weather History for Minot, ND

Change the Weather History Date:

Tuesday, May 28, 2013

  Actual Average Record
Temperature  
Mean Temperature 63 °F 59 °F  
Max Temperature 72 °F 70 °F 99 °F (1919)
Min Temperature 54 °F 47 °F 20 °F (1947)
Degree Days  
Heating Degree Days 3    
Cooling Degree Days 0 1  
Month to date cooling degree days 10 6  
Year to date cooling degree days 10 7  
Growing Degree Days 12 (Base 50)    
Moisture  
Dew Point 54 °F    
Average Humidity 75    
Maximum Humidity 100    
Minimum Humidity 49    
Precipitation  
Precipitation 0.02 in 0.09 in 2.69 in (1953)
Month to date precipitation 4.28 2.20  
Year to date precipitation 5.90 5.09  
Sea Level Pressure  
Sea Level Pressure 29.61 in    
Wind  
Wind Speed 7 mph (SW)    
Max Wind Speed 22 mph    
Max Gust Speed 28 mph    
Visibility 7 miles    
Events Fog , Rain    
T = Trace of Precipitation, MM = Missing Value Source: NWS Daily Summary

Daily Weather History Graph

Daily Weather History Graph

Search for Another Location

Airport:

Trip Planner

Search our weather history database for the weather conditions in past years. The results will help you decide how hot, cold, wet, or windy it might be!

Date:

Astronomy

May. 28, 2013 Rise Set
Actual Time 5:51 AM CDT 9:34 PM CDT
Civil Twilight 5:11 AM CDT 10:13 PM CDT
Nautical Twilight 4:18 AM CDT 11:07 PM CDT
Astronomical Twilight 3:01 AM CDT 12:25 AM CDT
Moon 12:07 AM CDT (5/28) 9:50 AM CDT (5/28)
Length of Visible Light 17h 01m
Length of Day
15h 42m
Waning Gibbous, 82% of the Moon is Illuminated
May 28
Waning Gibbous
May 31
Last Quarter
Jun 8
New
Jun 16
First Quarter
Jun 23
Full

Hourly Weather History & Observations

Time (CDT) Temp. Dew Point Humidity Pressure Visibility Wind Dir Wind Speed Gust Speed Precip Events Conditions
12:54 AM 55.9 °F 55.0 °F 97% 29.65 in 4.0 mi ESE 5.8 mph - N/A   Mostly Cloudy
1:23 AM 55.4 °F 55.4 °F 100% 29.63 in 4.0 mi SE 3.5 mph - N/A   Overcast
1:36 AM 55.4 °F 55.4 °F 100% 29.63 in 4.0 mi Calm Calm - N/A   Overcast
1:52 AM 55.4 °F 53.6 °F 94% 29.63 in 2.0 mi Calm Calm - N/A   Overcast
1:54 AM 55.9 °F 54.0 °F 93% 29.64 in 2.0 mi Calm Calm - N/A   Overcast
2:06 AM 55.4 °F 55.4 °F 100% 29.63 in 3.0 mi Calm Calm - N/A   Overcast
2:24 AM 55.4 °F 53.6 °F 94% 29.63 in 1.5 mi Calm Calm - N/A   Overcast
2:54 AM 55.0 °F 53.1 °F 93% 29.64 in 2.5 mi Calm Calm - N/A   Overcast
3:04 AM 53.6 °F 53.6 °F 100% 29.63 in 1.0 mi Calm Calm - N/A   Overcast
3:11 AM 53.6 °F 53.6 °F 100% 29.63 in 0.5 mi Calm Calm - N/A Fog Fog
3:51 AM 55.4 °F 53.6 °F 94% 29.62 in 2.0 mi Calm Calm - 0.00 in   Overcast
3:52 AM 55.9 °F 54.0 °F 93% 29.62 in 2.0 mi Calm Calm - 0.00 in   Overcast
4:00 AM 55.4 °F 53.6 °F 94% 29.62 in 8.0 mi South 3.5 mph - N/A   Overcast
4:49 AM 57.2 °F 55.4 °F 94% 29.62 in 10.0 mi South 3.5 mph - 0.01 in   Overcast
4:54 AM 55.9 °F 55.0 °F 97% 29.62 in 9.0 mi SSE 3.5 mph - 0.01 in   Overcast
5:06 AM 57.2 °F 55.4 °F 94% 29.61 in 6.0 mi Calm Calm - 0.00 in Rain Light Rain
5:54 AM 55.0 °F 53.1 °F 93% 29.62 in 5.0 mi SE 4.6 mph - 0.01 in   Overcast
6:54 AM 55.9 °F 54.0 °F 93% 29.60 in 10.0 mi SSW 3.5 mph - N/A   Overcast
7:54 AM 55.9 °F 55.0 °F 97% 29.59 in 5.0 mi SE 4.6 mph - N/A   Overcast
8:11 AM 55.4 °F 55.4 °F 100% 29.59 in 5.0 mi South 6.9 mph - N/A   Overcast
8:54 AM 57.0 °F 55.0 °F 93% 29.59 in 7.0 mi Calm Calm - N/A   Overcast
9:11 AM 57.2 °F 55.4 °F 94% 29.58 in 8.0 mi South 3.5 mph - N/A   Overcast
9:31 AM 59.0 °F 55.4 °F 88% 29.58 in 9.0 mi WSW 3.5 mph - N/A   Overcast
9:54 AM 60.1 °F 55.9 °F 86% 29.59 in 10.0 mi SW 4.6 mph - N/A   Overcast
10:30 AM 60.8 °F 55.4 °F 82% 29.59 in 10.0 mi SW 8.1 mph - N/A   Overcast
10:54 AM 62.1 °F 55.0 °F 78% 29.59 in 10.0 mi SW 11.5 mph - N/A   Mostly Cloudy
11:10 AM 62.6 °F 55.4 °F 77% 29.59 in 10.0 mi WSW 6.9 mph - N/A   Mostly Cloudy
11:54 AM 64.0 °F 55.0 °F 73% 29.59 in 10.0 mi West 11.5 mph 16.1 mph N/A   Mostly Cloudy
12:54 PM 64.9 °F 54.0 °F 68% 29.59 in 10.0 mi West 8.1 mph - N/A   Mostly Cloudy
1:54 PM 66.9 °F 55.0 °F 66% 29.59 in 10.0 mi West 11.5 mph - N/A   Mostly Cloudy
2:54 PM 69.1 °F 53.1 °F 57% 29.61 in 10.0 mi West 19.6 mph - N/A   Scattered Clouds
3:54 PM 70.0 °F 52.0 °F 53% 29.60 in 10.0 mi West 12.7 mph 23.0 mph N/A   Partly Cloudy
4:54 PM 71.1 °F 52.0 °F 51% 29.59 in 10.0 mi WSW 11.5 mph 17.3 mph N/A   Mostly Cloudy
5:54 PM 71.1 °F 52.0 °F 51% 29.60 in 10.0 mi West 16.1 mph 20.7 mph N/A   Mostly Cloudy
6:54 PM 70.0 °F 51.1 °F 51% 29.60 in 10.0 mi West 11.5 mph - N/A   Partly Cloudy
7:54 PM 68.0 °F 52.0 °F 56% 29.60 in 10.0 mi West 10.4 mph - N/A   Partly Cloudy
8:54 PM 64.0 °F 53.1 °F 67% 29.62 in 10.0 mi WSW 4.6 mph - N/A   Clear
9:54 PM 61.0 °F 52.0 °F 72% 29.63 in 10.0 mi SW 5.8 mph - N/A   Clear
10:54 PM 60.1 °F 53.1 °F 78% 29.64 in 10.0 mi WNW 8.1 mph - N/A   Scattered Clouds
11:54 PM 57.0 °F 52.0 °F 83% 29.65 in 10.0 mi SW 5.8 mph - N/A   Clear